Regional Weather Roundup
Issued by NWS

Home | Current Version | Previous Version | Graphics & Text | Print | Product List | Glossary On
Versions: 1 2 3 4 5 6 7 8 9 10 11 12 13 14 15 16 17 18 19 20 21 22 23 24 25 26 27 28 29 30 31 32 33 34 35 36 37 38 39 40 41 42 43 44 45 46 47 48 49 50
000
ASUS43 KDTX 292001
RWRMI
MICHIGAN HOURLY REGIONAL WEATHER ROUNDUP
NATIONAL WEATHER SERVICE DETROIT/PONTIAC MI
400 PM EDT MON AUG 29 2016

NOTE: "FAIR" INDICATES FEW OR NO CLOUDS BELOW 12,000 FEET WITH NO
SIGNIFICANT WEATHER AND/OR OBSTRUCTION TO VISIBILITY.

MIZ047>049-052>055-059>063-066>070-074>076-081>083-292100-
SOUTHEAST LOWER MICHIGAN

CITY           SKY/WX    TMP DP  RH WIND       PRES   REMARKS
ADRIAN         MOSUNNY   80  67  64 VRB3      30.25F
ALMA           SUNNY     80  69  70 CALM      30.26F
ANN ARBOR      SUNNY     82  64  54 VRB5      30.24F
BAD AXE        MOSUNNY   79  61  54 CALM      30.26F
CARO           SUNNY     80  64  57 CALM      30.25S
DETROIT CITY   SUNNY     81  66  60 VRB6      30.24F
DETROIT        MOSUNNY   83  61  47 VRB3      30.24F
FLINT          SUNNY     82  64  54 VRB3      30.25F
GROSSE ILE     SUNNY     78  68  71 S6        30.23F
HILLSDALE      PTSUNNY   82  66  58 E5        30.25F
HOWELL         SUNNY     82  63  52 SW5       30.25F

CITY           SKY/WX    TMP DP  RH WIND       PRES   REMARKS
JACKSON        SUNNY     83  63  50 CALM      30.25F
LAMBERTVILLE   SUNNY     81  68  64 E7        30.25F
LANSING        MOSUNNY   83  62  49 VRB3      30.24F
LAPEER         FAIR      80  62  53 CALM      30.25F
MASON          SUNNY     82  63  53 CALM      30.25F
MONROE         SUNNY     80  67  64 SE5G16    30.24F
MT. CLEMENS    MOSUNNY   80  66  63 E6        30.23F
PONTIAC        MOSUNNY   81  60  48 SE5       30.24F
PORT HURON     SUNNY     79  66  65 E5        30.25F
TRI CITIES     SUNNY     81  65  58 CALM      30.26F
MIDLAND        FAIR      81  62  53 CALM      30.24F
TROY           SUNNY     85  58  39 CALM      30.25F
SAGINAW HB     MOSUNNY   79  63  57 CALM      30.25F
$$
MIZ043>046-050>051-056>058-064>065-071>073-077>080-292100-
SOUTHWEST LOWER MICHIGAN

CITY           SKY/WX    TMP DP  RH WIND       PRES   REMARKS
BATTLE CREEK   MOSUNNY   81  67  62 SW6       30.24F
BENTON HARBOR  MOSUNNY   83  71  67 VRB7      30.21F
BIG RAPIDS     PTSUNNY   81  68  64 S5        30.25F
COLDWATER      MOSUNNY   83  67  56 CALM      30.25F
FREMONT        FAIR      82  65  56 SE5       30.23F
HOLLAND        MOSUNNY   84  72  67 W3        30.23F
GRAND RAPIDS   PTSUNNY   84  67  56 E5        30.23F
IONIA          FAIR      81  64  56 S3        30.24F
KALAMAZOO      MOSUNNY   85  65  51 CALM      30.23F
LUDINGTON      SUNNY     79  69  71 SW8       30.22F
MARSHALL       MOSUNNY   84  66  54 CALM      30.24F
MOUNT PLEASANT SUNNY     81  66  60 S3        30.25F
MUSKEGON       MOSUNNY   83  69  62 SW7       30.23F
SOUTH HAVEN    SUNNY     85  72  65 NW6       30.21F HX  91
$$
MIZ016>042-292100-
NORTHERN LOWER MICHIGAN

CITY           SKY/WX    TMP DP  RH WIND       PRES   REMARKS
ALPENA         SUNNY     77  59  53 SE12      30.25F
BEAVER ISLAND  SUNNY     80  59  48 S7        30.21F
BELLAIRE       SUNNY     85  51  31 S8        30.20F
CADILLAC       MOSUNNY   79  65  61 S9        30.24F
CHARLEVOIX     SUNNY     82  56  41 SW8       30.23S
FRANKFORT      CLOUDY    76  67  73 W8        30.21S
GAYLORD        SUNNY     81  54  39 SW8       30.24F
GRAYLING       SUNNY     82  56  40 S7        30.25F
HARBOR SPRINGS SUNNY     83  59  44 S6        30.19F
HOUGHTON LAKE  SUNNY     79  56  45 SW5       30.26F
MANISTEE       MOSUNNY   81  71  71 W12       30.20F
OSCODA         SUNNY     75  59  56 SE9       30.25F
PELLSTON       CLOUDY    82  58  43 SE10      30.20F
ROGERS CITY    CLOUDY    74  62  68 E8        30.25F
TRAVERSE CITY  PTSUNNY   85  61  44 VRB6      30.18F
$$
MIZ007>008-015-292100-
EASTERN UPPER MICHIGAN

CITY           SKY/WX    TMP DP  RH WIND       PRES   REMARKS
KINROSS        MOSUNNY   74  57  55 SE13      30.22F
MACKINAC ISLAN MOSUNNY   69  61  76 E9G18     30.21F
NEWBERRY       CLOUDY    74  57  54 S14G20    30.21F HAZE
S. S. MARIE    MOSUNNY   75  61  61 SE13      30.21F
$$
MIZ004>006-011>014-085-292100-
CENTRAL UPPER MICHIGAN

CITY           SKY/WX    TMP DP  RH WIND       PRES   REMARKS
MANISTIQUE     MOSUNNY   74  67  78 S9        30.21F
ESCANABA       CLOUDY    75  69  81 SE12      30.18F
MENOMINEE      CLOUDY   N/A N/A N/A SW13      30.19F
$$
MIZ001>003-009>011-084-292100-
WESTERN UPPER MICHIGAN

CITY           SKY/WX    TMP DP  RH WIND       PRES   REMARKS
IRON MOUNTAIN  CLOUDY    83  66  56 SW5       30.17F
HOUGHTON       CLOUDY    80  59  48 W14       30.12F
IRONWOOD       SUNNY     83  64  52 W8        30.15F
$$

ABBREVIATIONS USED IN REMARKS
   TC - TEMPERATURE IN CELSIUS
  WCI - WIND CHILL INDEX
   HX - HEAT INDEX
  VSB - VISIBILITY




USA.gov is the U.S. government's official web portal to all federal, state and local government web resources and services.